Wetbulb
51.27 48.42 46.74 47.71 48.91 45.76 46.10 45.29 45.51 48.31 50.28 51.15 51.50 51.51 51.55 51.46 51.36 51.39 51.43 50.74 51.22 50.98 50.25 49.92 49.84 49.48 49.61
53.09 52.96 46.49 48.85 48.93 48.17 47.36 45.71 45.81 47.06 48.25 49.30 50.14 50.73 51.03 50.80 50.32 50.03 49.75 49.62 50.12 49.46 48.98 48.78 48.87 49.07 48.87
52.56 54.41 54.55 48.95 45.69 43.77 44.24 45.41 43.75 44.94 46.75 48.16 48.68 49.47 50.15 50.64 50.16 49.47 48.55 48.22 48.37 47.94 47.48 47.23 47.25 47.51 47.73
53.13 53.13 53.23 52.94 45.16 46.33 48.98 44.87 44.01 43.54 43.80 44.98 45.82 46.69 48.41 49.26 48.98 47.96 47.25 47.24 47.47 47.20 47.30 46.63 45.53 45.55 46.15
52.79 52.90 52.33 49.89 45.18 47.82 44.41 46.65 44.92 42.84 42.41 40.50 40.45 41.16 42.62 45.15 45.69 46.43 46.81 47.17 46.71 47.04 47.10 46.53 45.25 44.93 45.03
48.27 49.03 50.06 50.33 49.73 47.79 46.25 41.44 44.30 40.29 38.85 39.07 38.78 39.46 40.40 41.31 43.59 44.91 46.28 46.67 46.46 46.32 46.23 46.23 45.48 44.51 44.97
43.46 43.90 43.64 43.59 42.90 42.86 43.34 42.70 43.60 44.14 39.32 40.53 37.40 39.30 40.60 40.38 42.93 43.53 44.12 45.44 45.58 45.72 45.63 45.61 44.90 44.10 44.24
41.82 41.52 41.84 42.40 42.63 42.74 42.57 42.35 41.10 39.35 39.60 36.53 36.97 36.67 39.05 38.71 41.54 42.40 43.02 43.42 43.86 44.68 44.96 45.14 44.52 43.77 43.45
41.36 41.70 41.72 42.64 43.35 42.03 38.88 36.99 37.05 37.72 36.11 36.23 34.81 34.61 34.27 34.36 35.74 40.32 41.79 42.31 42.78 43.33 43.72 44.37 44.08 43.48 42.03
34.95 36.19 38.13 38.50 40.54 40.01 38.96 35.99 36.03 35.88 34.99 33.82 33.07 33.42 34.21 33.58 33.66 34.61 35.69 39.50 41.66 42.45 42.87 42.98 43.01 40.17 38.59
31.75 31.99 33.53 35.71 36.68 37.26 35.40 36.64 34.72 35.07 39.00 34.31 32.58 32.06 32.19 33.02 32.14 32.78 33.39 34.08 36.15 38.32 41.66 42.11 42.27 40.61 34.04
30.31 29.32 30.71 33.15 34.15 34.95 35.09 35.74 36.50 35.37 37.80 37.24 33.14 32.95 32.40 33.42 31.31 31.49 31.79 32.74 34.35 33.72 34.38 39.02 41.01 41.02 37.40
29.24 30.47 30.90 34.12 34.35 34.11 33.64 32.93 34.66 34.45 35.20 34.22 34.51 34.51 33.11 32.81 33.20 30.13 29.65 30.46 32.29 32.12 32.11 33.33 32.91 33.63 32.83
25.17 26.13 28.26 30.00 31.34 32.98 31.75 32.08 32.04 32.02 33.39 32.98 33.07 32.98 32.04 32.43 32.30 31.85 30.14 29.46 30.09 31.03 31.61 31.59 31.50 32.20 31.83
23.42 24.22 24.97 26.55 28.94 30.86 30.76 30.92 30.86 30.25 30.73 32.94 28.91 32.44 32.42 31.50 29.81 30.40 29.78 28.89 29.12 29.15 29.33 28.55 29.60 30.35 30.44
23.62 23.47 23.60 24.00 24.30 28.70 27.68 28.75 28.63 29.86 29.70 30.70 29.92 27.86 19.67 23.54 32.49 29.58 28.73 27.51 27.65 28.75 28.82 26.38 25.49 28.43 29.92
20.22 22.92 21.43 21.04 23.61 24.77 26.50 26.04 26.96 28.70 29.13 24.81 21.43 25.13 23.56 21.57 21.61 33.30 29.05 24.42 26.35 26.65 26.80 26.52 23.03 26.53 28.89
MSLP
1020.88 1020.56 1020.53 1020.18 1019.74 1019.77 1019.61 1019.60 1019.40 1019.11 1018.79 1018.74 1018.69 1018.73 1018.81 1018.81 1018.79 1018.83 1018.86 1018.97 1018.98 1019.09 1019.17 1019.15 1019.19 1018.97 1019.09
1020.22 1019.91 1020.08 1019.53 1019.14 1019.06 1018.73 1018.58 1018.43 1017.98 1018.06 1018.13 1017.98 1017.69 1017.57 1017.61 1017.59 1017.54 1017.72 1017.92 1018.01 1018.08 1018.21 1018.80 1018.70 1018.67 1018.42
1019.21 1019.15 1018.90 1018.99 1018.83 1018.71 1018.48 1018.17 1018.14 1017.68 1017.47 1017.25 1017.03 1016.88 1016.73 1016.67 1016.51 1016.48 1016.50 1016.70 1016.92 1017.27 1017.59 1017.62 1017.85 1017.97 1018.05
1018.48 1018.35 1018.24 1018.08 1018.28 1018.15 1017.86 1017.61 1017.24 1017.06 1016.30 1016.13 1016.30 1016.18 1016.07 1015.78 1015.82 1015.81 1015.95 1015.97 1016.13 1016.02 1016.60 1016.74 1016.95 1017.14 1017.32
1018.06 1017.72 1017.52 1017.76 1017.79 1017.45 1017.20 1016.93 1016.40 1016.39 1015.69 1015.30 1015.80 1015.63 1015.41 1015.33 1014.99 1015.05 1014.86 1015.23 1014.94 1015.41 1015.59 1015.90 1016.22 1016.34 1016.53
1018.56 1018.10 1017.85 1017.59 1017.09 1017.05 1017.01 1017.11 1016.34 1016.17 1015.77 1015.64 1015.16 1015.12 1014.82 1014.56 1014.42 1014.35 1014.57 1014.30 1014.58 1014.72 1014.63 1015.06 1015.35 1015.65 1015.71
1019.30 1018.92 1018.92 1018.44 1018.28 1017.99 1017.03 1016.90 1016.55 1016.04 1015.84 1015.30 1015.08 1014.45 1013.81 1013.77 1013.82 1013.70 1013.61 1013.45 1013.50 1013.92 1013.88 1014.17 1014.56 1014.89 1015.29
1019.88 1019.44 1019.06 1019.14 1018.58 1018.10 1017.32 1016.99 1016.08 1015.76 1015.80 1015.18 1014.30 1013.85 1013.59 1013.31 1013.14 1012.84 1012.93 1012.85 1012.79 1013.03 1013.08 1013.50 1013.85 1014.11 1014.55
1019.44 1019.52 1018.73 1018.57 1018.50 1017.85 1017.28 1017.23 1015.93 1015.53 1015.55 1015.31 1014.50 1014.07 1013.39 1012.74 1012.50 1012.37 1012.47 1012.46 1012.49 1012.53 1012.52 1012.60 1012.90 1013.41 1013.95
1019.58 1019.31 1018.82 1018.60 1018.06 1017.72 1017.72 1017.07 1016.53 1015.42 1015.25 1015.56 1014.81 1014.71 1013.49 1012.50 1012.36 1012.31 1012.33 1012.18 1012.11 1011.93 1011.90 1012.05 1012.30 1012.80 1013.40
1019.23 1018.95 1018.53 1018.26 1017.87 1017.47 1017.53 1017.22 1016.74 1016.16 1015.45 1015.39 1014.72 1014.75 1014.57 1013.42 1012.78 1012.70 1012.62 1012.35 1012.18 1012.09 1011.81 1011.52 1011.82 1012.46 1013.23
1019.38 1018.93 1018.53 1017.94 1017.61 1017.32 1017.04 1016.81 1016.53 1016.15 1015.48 1015.22 1014.67 1014.42 1014.03 1013.39 1012.93 1012.55 1012.40 1012.25 1012.16 1011.96 1011.79 1011.67 1011.85 1012.26 1012.78
1019.61 1019.20 1018.63 1018.08 1017.51 1017.15 1016.74 1016.33 1015.90 1015.60 1015.15 1014.87 1014.50 1013.96 1013.71 1013.16 1012.66 1012.43 1012.41 1012.16 1012.03 1011.95 1011.93 1011.84 1011.96 1012.31 1012.67
1020.30 1019.71 1018.97 1018.14 1017.59 1017.25 1016.68 1016.07 1015.56 1014.99 1014.68 1014.37 1014.13 1013.86 1013.31 1012.91 1012.55 1012.06 1012.18 1012.23 1011.83 1011.75 1011.78 1011.78 1011.92 1012.11 1012.37
1020.54 1019.97 1019.38 1018.65 1017.84 1017.18 1016.65 1016.05 1015.46 1014.77 1014.29 1013.95 1013.71 1013.49 1013.10 1012.74 1012.22 1011.88 1011.69 1011.65 1011.56 1011.62 1011.75 1011.71 1011.80 1011.93 1012.29
1020.69 1020.30 1019.66 1019.02 1018.38 1017.31 1016.83 1016.22 1015.44 1014.68 1014.22 1013.88 1013.50 1013.17 1012.66 1012.02 1011.67 1011.39 1011.41 1011.36 1011.29 1011.35 1011.45 1011.64 1011.75 1011.78 1012.11
1020.84 1020.30 1019.93 1019.35 1018.53 1017.71 1016.93 1016.21 1015.37 1014.60 1014.13 1013.76 1013.58 1013.48 1012.82 1012.10 1011.30 1010.97 1010.94 1011.09 1011.17 1011.22 1011.24 1011.38 1011.40 1011.56 1011.84
Wind_Speed
6 3 4 8 8 5 7 7 7 17 21 21 21 21 21 21 22 22 22 23 24 23 23 22 22 21 19
12 10 7 6 7 7 7 7 8 14 16 17 20 23 22 23 24 23 23 22 22 23 24 23 23 22 21
11 9 10 3 5 5 6 7 6 12 15 18 20 22 24 24 25 24 23 23 21 21 24 24 24 24 22
9 9 8 6 3 5 9 4 6 5 12 14 15 18 22 24 24 23 22 22 23 25 24 23 22 23 21
10 9 8 6 5 3 5 6 6 6 5 4 5 6 9 16 19 21 20 22 24 25 24 25 23 23 21
5 8 6 5 3 3 5 2 7 1 1 4 4 6 7 7 15 17 22 24 26 24 24 25 23 22 20
6 5 7 7 7 8 3 4 7 4 2 9 3 7 5 6 16 20 22 21 22 24 24 23 22 20 20
5 7 6 9 7 8 9 9 6 4 1 7 1 4 2 5 16 18 21 22 22 23 22 22 21 20 20
11 11 12 14 13 7 5 6 9 5 3 3 1 4 3 3 4 15 18 19 20 21 22 21 19 18 14
5 7 7 7 11 5 6 7 6 6 2 2 1 1 6 0 1 2 3 14 19 20 20 20 19 7 6
4 3 3 4 5 4 5 6 7 6 5 2 1 1 3 5 1 2 2 3 5 8 17 17 17 12 6
5 4 4 4 4 4 5 6 7 10 9 6 4 3 3 6 5 0 2 2 3 2 2 5 11 13 14
6 7 6 7 7 6 5 6 9 9 7 5 7 9 5 8 9 3 2 2 4 3 1 4 4 4 4
6 7 7 6 7 6 9 10 7 9 5 6 7 7 8 8 8 8 4 3 2 3 4 3 3 4 4
6 8 8 8 8 7 7 9 7 7 8 7 4 8 8 9 8 6 5 4 4 3 3 3 3 4 4
8 9 9 8 10 8 8 7 10 7 6 7 6 7 4 5 15 9 5 4 3 5 3 3 2 4 5
7 7 8 7 12 9 9 8 9 8 7 4 2 5 9 9 3 12 6 3 2 3 4 3 2 5 5
Wind_Direction
263 257 256 255 267 231 241 242 253 248 248 246 245 244 244 243 246 249 250 252 253 253 254 255 255 259 263
268 270 227 253 248 251 249 236 241 250 251 251 248 245 243 244 243 242 243 243 246 246 249 254 260 258 260
259 262 272 241 263 256 262 267 249 252 250 249 248 246 245 247 245 243 240 236 239 240 244 248 252 256 261
257 254 250 252 217 264 280 229 260 243 234 238 248 251 252 251 252 250 244 238 237 239 241 243 243 252 250
267 267 261 243 221 239 234 271 269 229 254 254 249 256 256 258 257 256 241 242 242 239 241 245 243 247 239
315 308 325 313 320 255 258 252 287 102 275 276 188 246 242 236 244 249 248 245 246 240 241 243 242 247 235
315 332 326 355 332 316 303 269 270 283 179 283 191 263 242 244 247 250 249 247 242 245 245 237 239 240 248
314 319 302 308 299 281 294 282 271 252 187 271 153 261 265 232 243 248 253 252 249 249 246 242 239 232 242
319 300 313 305 293 302 308 298 302 292 198 266 272 274 248 260 249 260 263 261 258 256 253 243 239 233 227
309 298 300 303 316 325 318 302 305 307 315 251 277 310 307 181 285 260 263 265 262 258 254 250 239 213 198
285 281 282 300 305 306 295 301 294 275 310 256 252 218 245 306 306 305 249 289 272 279 266 249 237 213 158
323 310 304 309 281 275 274 292 287 278 289 266 267 227 252 276 277 218 244 248 263 246 208 232 224 226 169
332 327 320 308 306 307 292 287 308 296 282 263 266 275 256 267 279 254 279 246 230 228 229 203 173 164 163
334 318 309 313 313 318 319 317 314 315 286 262 267 271 273 262 265 273 213 250 202 213 212 192 167 176 150
328 330 327 322 317 306 310 309 294 304 308 307 261 259 261 270 274 261 248 228 205 201 196 196 184 163 150
331 326 324 327 315 320 309 304 304 293 293 301 301 305 328 275 232 262 248 244 201 195 191 191 190 170 165
313 313 318 309 322 316 317 309 309 298 286 292 276 282 287 285 271 229 241 208 177 197 190 188 183 182 170